Tracking 29892 objects as of 21-Nov-2024
HD Live streaming from Space Station
objects crossing your sky now

BDSAT-2

Track BDSAT-2 now!
10-day predictions
BDSAT-2 is classified as:


NORAD ID: 55098
Int'l Code: 2023-001CT
Perigee: 397.9 km
Apogee: 408.2 km
Inclination: 97.4 °
Period: 92.5 minutes
Semi major axis: 6774 km
RCS: Unknown
Launch date: January 3, 2023
Source: (TBD)
Launch site: AIR FORCE EASTERN TEST RANGE (AFETR)

Uplink (MHz):
Downlink (MHz): 145.850/436.025
Beacon (MHz): 436.025
Mode: 9600bps GFSK CW
Call sign: OK0BDT
Status: Active

Your satellite tracking list
Your tracking list is empty




NASA's NSSDC Master Catalog

Two Line Element Set (TLE):
1 55098U 23001CT  24325.13220652  .00125368  00000-0  17039-2 0  9997
2 55098  97.4036  31.1894 0007625 307.3575  52.6985 15.57138807104896
Source of the keplerian elements: AFSPC